Time,TemperatureF,DewpointF,PressureIn,WindDirection,WindDirectionDegrees,WindSpeedMPH,WindSpeedGustMPH,Humidity,HourlyPrecipIn,Conditions,Clouds,dailyrainin,SoftwareType,DateUTC
2013-04-15 00:00:00,65.5,52.6,29.90,North,0,0.0,0.0,63,0.00,,,0.00,WUHU216HW,2013-04-15 04:00:00,
2013-04-15 00:01:00,65.5,52.6,29.89,North,0,0.0,0.0,63,0.00,,,0.00,WUHU216HW,2013-04-15 04:01:00,
2013-04-15 00:02:00,65.5,52.1,29.90,North,0,0.0,0.0,62,0.00,,,0.00,WUHU216HW,2013-04-15 04:02:00,
2013-04-15 00:07:00,65.5,52.1,29.89,North,0,0.0,0.0,62,0.00,,,0.00,WUHU216HW,2013-04-15 04:07:00,
2013-04-15 00:12:00,65.7,52.3,29.90,North,0,0.0,0.0,62,0.00,,,0.00,WUHU216HW,2013-04-15 04:12:00,
2013-04-15 00:17:00,65.5,52.1,29.90,North,0,0.0,0.0,62,0.00,,,0.00,WUHU216HW,2013-04-15 04:17:00,
2013-04-15 00:22:00,65.5,52.1,29.90,North,0,0.0,0.0,62,0.00,,,0.00,WUHU216HW,2013-04-15 04:22:00,
2013-04-15 00:27:00,65.5,52.1,29.91,North,0,0.0,0.0,62,0.00,,,0.00,WUHU216HW,2013-04-15 04:27:00,
2013-04-15 00:32:00,65.5,52.1,29.91,North,0,0.0,0.0,62,0.00,,,0.00,WUHU216HW,2013-04-15 04:32:00,
2013-04-15 00:38:00,65.5,52.1,29.91,North,0,0.0,0.0,62,0.00,,,0.00,WUHU216HW,2013-04-15 04:38:00,
2013-04-15 00:43:00,65.5,52.6,29.91,North,0,0.0,0.0,63,0.00,,,0.00,WUHU216HW,2013-04-15 04:43:00,
2013-04-15 00:48:00,65.5,52.6,29.91,North,0,0.0,0.0,63,0.00,,,0.00,WUHU216HW,2013-04-15 04:48:00,
2013-04-15 00:53:00,65.5,52.6,29.91,North,0,0.0,0.0,63,0.00,,,0.00,WUHU216HW,2013-04-15 04:53:00,
2013-04-15 00:58:00,65.5,52.6,29.91,North,0,0.0,0.0,63,0.00,,,0.00,WUHU216HW,2013-04-15 04:58:00,
2013-04-15 01:03:00,65.5,52.6,29.90,North,0,0.0,0.0,63,0.00,,,0.00,WUHU216HW,2013-04-15 05:03:00,
2013-04-15 01:08:00,65.5,52.6,29.90,North,0,0.0,0.0,63,0.00,,,0.00,WUHU216HW,2013-04-15 05:08:00,
2013-04-15 01:13:00,65.5,53.0,29.89,North,0,0.0,0.0,64,0.00,,,0.00,WUHU216HW,2013-04-15 05:13:00,
2013-04-15 01:18:00,65.5,53.0,29.89,North,0,0.0,0.0,64,0.00,,,0.00,WUHU216HW,2013-04-15 05:18:00,
2013-04-15 01:23:00,65.5,53.0,29.89,North,0,0.0,0.0,64,0.00,,,0.00,WUHU216HW,2013-04-15 05:23:00,
2013-04-15 01:28:00,65.3,52.8,29.90,North,0,0.0,0.0,64,0.00,,,0.00,WUHU216HW,2013-04-15 05:28:00,
2013-04-15 01:33:00,65.5,53.0,29.90,North,0,0.0,0.0,64,0.00,,,0.00,WUHU216HW,2013-04-15 05:33:00,
2013-04-15 01:38:00,65.3,52.8,29.90,North,0,0.0,0.0,64,0.00,,,0.00,WUHU216HW,2013-04-15 05:38:00,
2013-04-15 01:43:00,65.3,53.3,29.90,North,0,0.0,0.0,65,0.00,,,0.00,WUHU216HW,2013-04-15 05:43:00,
2013-04-15 01:48:00,65.2,53.1,29.89,North,0,0.0,0.0,65,0.00,,,0.00,WUHU216HW,2013-04-15 05:48:00,
2013-04-15 01:54:00,65.2,53.5,29.89,North,0,0.0,0.0,66,0.00,,,0.00,WUHU216HW,2013-04-15 05:54:00,
2013-04-15 01:58:00,65.2,53.5,29.89,North,0,0.0,0.0,66,0.00,,,0.00,WUHU216HW,2013-04-15 05:58:00,
2013-04-15 02:04:00,65.0,53.3,29.89,North,0,0.0,0.0,66,0.00,,,0.00,WUHU216HW,2013-04-15 06:04:00,
2013-04-15 02:09:00,65.0,53.3,29.88,North,0,0.0,0.0,66,0.00,,,0.00,WUHU216HW,2013-04-15 06:09:00,
2013-04-15 02:14:00,64.8,53.2,29.88,North,0,0.0,0.0,66,0.00,,,0.00,WUHU216HW,2013-04-15 06:14:00,
2013-04-15 02:19:00,64.8,53.2,29.88,North,0,0.0,0.0,66,0.00,,,0.00,WUHU216HW,2013-04-15 06:19:00,
2013-04-15 02:24:00,64.8,53.2,29.88,North,0,0.0,0.0,66,0.00,,,0.00,WUHU216HW,2013-04-15 06:24:00,
2013-04-15 02:29:00,64.8,53.6,29.89,North,0,0.0,0.0,67,0.00,,,0.00,WUHU216HW,2013-04-15 06:29:00,
2013-04-15 02:34:00,64.6,53.4,29.89,North,0,0.0,0.0,67,0.00,,,0.00,WUHU216HW,2013-04-15 06:34:00,
2013-04-15 02:39:00,64.6,53.8,29.88,North,0,0.0,0.0,68,0.00,,,0.00,WUHU216HW,2013-04-15 06:39:00,
2013-04-15 02:44:00,64.4,53.6,29.89,North,0,0.0,0.0,68,0.00,,,0.00,WUHU216HW,2013-04-15 06:44:00,
2013-04-15 02:49:00,64.4,53.6,29.89,North,0,0.0,0.0,68,0.00,,,0.00,WUHU216HW,2013-04-15 06:49:00,
2013-04-15 02:54:00,64.4,53.6,29.89,North,0,0.0,0.0,68,0.00,,,0.00,WUHU216HW,2013-04-15 06:54:00,
2013-04-15 02:59:00,64.4,53.6,29.89,North,0,0.0,0.0,68,0.00,,,0.00,WUHU216HW,2013-04-15 06:59:00,
2013-04-15 03:04:00,64.3,53.9,29.88,North,0,0.0,0.0,69,0.00,,,0.00,WUHU216HW,2013-04-15 07:04:00,
2013-04-15 03:05:00,64.3,53.9,29.88,North,0,0.0,0.0,69,0.00,,,0.00,WUHU216HW,2013-04-15 07:05:00,
2013-04-15 03:12:00,64.3,53.9,29.89,North,0,0.0,0.0,69,0.00,,,0.00,WUHU216HW,2013-04-15 07:12:00,
2013-04-15 03:18:00,64.3,53.9,29.89,North,0,0.0,0.0,69,0.00,,,0.00,WUHU216HW,2013-04-15 07:18:00,
2013-04-15 03:25:00,64.3,54.4,29.89,North,0,0.0,0.0,70,0.00,,,0.00,WUHU216HW,2013-04-15 07:25:00,
2013-04-15 03:41:00,64.1,54.2,29.89,North,0,0.0,0.0,70,0.00,,,0.00,WUHU216HW,2013-04-15 07:41:00,
2013-04-15 03:46:00,64.1,53.7,29.90,North,0,0.0,0.0,69,0.00,,,0.00,WUHU216HW,2013-04-15 07:46:00,
2013-04-15 03:48:00,64.1,53.7,29.90,North,0,0.0,0.0,69,0.00,,,0.00,WUHU216HW,2013-04-15 07:48:00,
2013-04-15 03:53:00,64.1,53.7,29.90,North,0,0.0,0.0,69,0.00,,,0.00,WUHU216HW,2013-04-15 07:53:00,
2013-04-15 03:54:00,64.1,53.7,29.90,North,0,0.0,0.0,69,0.00,,,0.00,WUHU216HW,2013-04-15 07:54:00,
2013-04-15 03:59:00,64.1,54.2,29.90,North,0,0.0,0.0,70,0.00,,,0.00,WUHU216HW,2013-04-15 07:59:00,
2013-04-15 04:04:00,64.1,54.2,29.90,North,0,0.0,0.0,70,0.00,,,0.00,WUHU216HW,2013-04-15 08:04:00,
2013-04-15 04:09:00,63.9,54.0,29.89,North,0,0.0,0.0,70,0.00,,,0.00,WUHU216HW,2013-04-15 08:09:00,
2013-04-15 04:14:00,63.7,54.2,29.89,North,0,0.0,0.0,71,0.00,,,0.00,WUHU216HW,2013-04-15 08:14:00,
2013-04-15 04:19:00,63.5,54.0,29.88,North,0,0.0,0.0,71,0.00,,,0.00,WUHU216HW,2013-04-15 08:19:00,
2013-04-15 04:24:00,63.4,54.2,29.88,North,0,0.0,0.0,72,0.00,,,0.00,WUHU216HW,2013-04-15 08:24:00,
2013-04-15 04:29:00,63.2,54.4,29.89,North,0,0.0,0.0,73,0.00,,,0.00,WUHU216HW,2013-04-15 08:29:00,
2013-04-15 04:34:00,63.0,54.2,29.89,North,0,0.0,0.0,73,0.00,,,0.00,WUHU216HW,2013-04-15 08:34:00,
2013-04-15 04:35:00,63.0,54.2,29.89,North,0,0.0,0.0,73,0.00,,,0.00,WUHU216HW,2013-04-15 08:35:00,
2013-04-15 04:40:00,63.0,54.5,29.89,North,0,0.0,0.0,74,0.00,,,0.00,WUHU216HW,2013-04-15 08:40:00,
2013-04-15 04:45:00,63.0,54.5,29.89,North,0,0.0,0.0,74,0.00,,,0.00,WUHU216HW,2013-04-15 08:45:00,
2013-04-15 04:50:00,62.8,54.4,29.89,North,0,0.0,0.0,74,0.00,,,0.00,WUHU216HW,2013-04-15 08:50:00,
2013-04-15 04:55:00,62.6,54.2,29.89,North,0,0.0,0.0,74,0.00,,,0.00,WUHU216HW,2013-04-15 08:55:00,
2013-04-15 05:00:00,62.6,54.2,29.89,North,0,0.0,0.0,74,0.00,,,0.00,WUHU216HW,2013-04-15 09:00:00,
2013-04-15 05:05:00,62.6,54.2,29.89,North,0,0.0,0.0,74,0.00,,,0.00,WUHU216HW,2013-04-15 09:05:00,
2013-04-15 05:11:00,62.5,54.4,29.89,North,0,0.0,0.0,75,0.00,,,0.00,WUHU216HW,2013-04-15 09:11:00,
2013-04-15 05:16:00,62.5,54.4,29.89,North,0,0.0,0.0,75,0.00,,,0.00,WUHU216HW,2013-04-15 09:16:00,
2013-04-15 05:21:00,62.5,54.4,29.89,North,0,0.0,0.0,75,0.00,,,0.00,WUHU216HW,2013-04-15 09:21:00,
2013-04-15 05:26:00,62.6,54.5,29.89,North,0,0.0,0.0,75,0.00,,,0.00,WUHU216HW,2013-04-15 09:26:00,
2013-04-15 05:31:00,62.5,54.4,29.89,North,0,0.0,0.0,75,0.00,,,0.00,WUHU216HW,2013-04-15 09:31:00,
2013-04-15 05:36:00,62.6,54.9,29.89,North,0,0.0,0.0,76,0.00,,,0.00,WUHU216HW,2013-04-15 09:36:00,
2013-04-15 05:41:00,62.5,54.7,29.89,North,0,0.0,0.0,76,0.00,,,0.00,WUHU216HW,2013-04-15 09:41:00,
2013-04-15 05:46:00,62.5,54.7,29.89,North,0,0.0,0.0,76,0.00,,,0.00,WUHU216HW,2013-04-15 09:46:00,
2013-04-15 05:52:00,62.5,54.7,29.89,North,0,0.0,0.0,76,0.00,,,0.00,WUHU216HW,2013-04-15 09:52:00,
2013-04-15 05:57:00,62.5,54.7,29.89,North,0,0.0,0.0,76,0.00,,,0.00,WUHU216HW,2013-04-15 09:57:00,
2013-04-15 06:02:00,62.3,54.5,29.89,North,0,0.0,0.0,76,0.00,,,0.00,WUHU216HW,2013-04-15 10:02:00,
2013-04-15 06:07:00,62.3,54.9,29.89,North,0,0.0,0.0,77,0.00,,,0.00,WUHU216HW,2013-04-15 10:07:00,
2013-04-15 06:12:00,62.3,54.9,29.89,North,0,0.0,0.0,77,0.00,,,0.00,WUHU216HW,2013-04-15 10:12:00,
2013-04-15 06:17:00,62.3,54.9,29.89,North,0,0.0,0.0,77,0.00,,,0.00,WUHU216HW,2013-04-15 10:17:00,
2013-04-15 06:22:00,62.3,54.9,29.90,North,0,0.0,0.0,77,0.00,,,0.00,WUHU216HW,2013-04-15 10:22:00,
2013-04-15 06:27:00,62.3,54.9,29.90,North,0,0.0,0.0,77,0.00,,,0.00,WUHU216HW,2013-04-15 10:27:00,
2013-04-15 06:32:00,62.3,54.9,29.90,North,0,0.0,0.0,77,0.00,,,0.00,WUHU216HW,2013-04-15 10:32:00,
2013-04-15 06:37:00,62.3,54.9,29.90,North,0,0.0,0.0,77,0.00,,,0.00,WUHU216HW,2013-04-15 10:37:00,
2013-04-15 06:42:00,62.3,54.9,29.91,North,0,0.0,0.0,77,0.00,,,0.00,WUHU216HW,2013-04-15 10:42:00,
2013-04-15 06:47:00,62.3,54.9,29.91,North,0,0.0,0.0,77,0.00,,,0.00,WUHU216HW,2013-04-15 10:47:00,
2013-04-15 06:52:00,62.3,54.9,29.91,North,0,0.0,0.0,77,0.00,,,0.00,WUHU216HW,2013-04-15 10:52:00,
2013-04-15 06:57:00,62.3,54.9,29.91,North,0,0.0,0.0,77,0.00,,,0.00,WUHU216HW,2013-04-15 10:57:00,
2013-04-15 07:02:00,62.3,54.9,29.91,North,0,0.0,0.0,77,0.00,,,0.00,WUHU216HW,2013-04-15 11:02:00,
2013-04-15 07:07:00,62.3,55.3,29.91,North,0,0.0,0.0,78,0.00,,,0.00,WUHU216HW,2013-04-15 11:07:00,
2013-04-15 07:13:00,62.3,55.3,29.91,North,0,0.0,0.0,78,0.00,,,0.00,WUHU216HW,2013-04-15 11:13:00,
2013-04-15 07:18:00,62.3,55.3,29.92,North,0,0.0,0.0,78,0.00,,,0.00,WUHU216HW,2013-04-15 11:18:00,
2013-04-15 07:23:00,62.3,55.3,29.92,North,0,0.0,0.0,78,0.00,,,0.00,WUHU216HW,2013-04-15 11:23:00,
2013-04-15 07:28:00,62.3,55.3,29.92,North,0,0.0,0.0,78,0.00,,,0.00,WUHU216HW,2013-04-15 11:28:00,
2013-04-15 07:33:00,62.3,55.3,29.92,North,0,0.0,0.0,78,0.00,,,0.00,WUHU216HW,2013-04-15 11:33:00,
2013-04-15 07:38:00,62.3,55.3,29.92,North,0,0.0,0.0,78,0.00,,,0.00,WUHU216HW,2013-04-15 11:38:00,
2013-04-15 07:43:00,62.3,55.3,29.92,North,0,0.0,0.0,78,0.00,,,0.00,WUHU216HW,2013-04-15 11:43:00,
2013-04-15 07:48:00,62.3,55.3,29.92,North,0,0.0,0.0,78,0.00,,,0.00,WUHU216HW,2013-04-15 11:48:00,
2013-04-15 07:53:00,62.5,55.4,29.93,North,0,0.0,0.0,78,0.00,,,0.00,WUHU216HW,2013-04-15 11:53:00,
2013-04-15 07:59:00,62.5,55.4,29.93,North,0,0.0,0.0,78,0.00,,,0.00,WUHU216HW,2013-04-15 11:59:00,
2013-04-15 08:04:00,62.6,55.6,29.93,North,0,0.0,0.0,78,0.00,,,0.00,WUHU216HW,2013-04-15 12:04:00,
2013-04-15 08:09:00,62.6,55.6,29.93,North,0,0.0,0.0,78,0.00,,,0.00,WUHU216HW,2013-04-15 12:09:00,
2013-04-15 08:14:00,62.6,56.0,29.93,North,0,0.0,0.0,79,0.00,,,0.00,WUHU216HW,2013-04-15 12:14:00,
2013-04-15 08:19:00,62.8,55.8,29.93,North,0,0.0,0.0,78,0.00,,,0.00,WUHU216HW,2013-04-15 12:19:00,
2013-04-15 08:24:00,62.8,56.2,29.93,North,0,0.0,0.0,79,0.00,,,0.00,WUHU216HW,2013-04-15 12:24:00,
2013-04-15 08:30:00,63.0,56.0,29.93,North,0,0.0,0.0,78,0.00,,,0.00,WUHU216HW,2013-04-15 12:30:00,
2013-04-15 08:35:00,63.0,56.0,29.93,North,0,0.0,0.0,78,0.00,,,0.00,WUHU216HW,2013-04-15 12:35:00,
2013-04-15 08:40:00,63.4,56.7,29.93,North,0,0.0,0.0,79,0.00,,,0.00,WUHU216HW,2013-04-15 12:40:00,
2013-04-15 08:45:00,63.7,57.4,29.93,North,0,0.0,0.0,80,0.00,,,0.00,WUHU216HW,2013-04-15 12:45:00,
2013-04-15 08:50:00,64.1,57.4,29.94,North,0,0.0,0.0,79,0.00,,,0.00,WUHU216HW,2013-04-15 12:50:00,
2013-04-15 08:55:00,64.4,57.8,29.94,North,0,0.0,0.0,79,0.00,,,0.00,WUHU216HW,2013-04-15 12:55:00,
2013-04-15 09:00:00,64.4,57.4,29.94,North,0,0.0,0.0,78,0.00,,,0.00,WUHU216HW,2013-04-15 13:00:00,
2013-04-15 09:05:00,64.4,57.4,29.94,North,0,0.0,0.0,78,0.00,,,0.00,WUHU216HW,2013-04-15 13:05:00,
2013-04-15 09:11:00,64.6,57.6,29.94,North,0,0.0,0.0,78,0.00,,,0.00,WUHU216HW,2013-04-15 13:11:00,
2013-04-15 09:16:00,64.8,57.8,29.94,North,0,0.0,0.0,78,0.00,,,0.00,WUHU216HW,2013-04-15 13:16:00,
2013-04-15 09:21:00,65.0,57.6,29.95,North,0,0.0,0.0,77,0.00,,,0.00,WUHU216HW,2013-04-15 13:21:00,
2013-04-15 09:26:00,65.2,57.8,29.94,North,0,0.0,0.0,77,0.00,,,0.00,WUHU216HW,2013-04-15 13:26:00,
2013-04-15 09:31:00,65.2,57.8,29.95,North,0,0.0,0.0,77,0.00,,,0.00,WUHU216HW,2013-04-15 13:31:00,
2013-04-15 09:36:00,65.2,57.8,29.95,North,0,0.0,0.0,77,0.00,,,0.00,WUHU216HW,2013-04-15 13:36:00,
2013-04-15 09:42:00,65.3,58.0,29.95,North,0,0.0,0.0,77,0.00,,,0.00,WUHU216HW,2013-04-15 13:42:00,
2013-04-15 09:47:00,65.3,57.6,29.95,North,0,0.0,0.0,76,0.00,,,0.00,WUHU216HW,2013-04-15 13:47:00,
2013-04-15 09:52:00,65.7,57.9,29.95,North,0,0.0,0.0,76,0.00,,,0.00,WUHU216HW,2013-04-15 13:52:00,
2013-04-15 09:57:00,65.7,58.3,29.95,North,0,0.0,0.0,77,0.00,,,0.00,WUHU216HW,2013-04-15 13:57:00,
2013-04-15 10:02:00,65.9,58.1,29.95,North,0,0.0,0.0,76,0.00,,,0.00,WUHU216HW,2013-04-15 14:02:00,
2013-04-15 10:07:00,65.9,57.7,29.95,North,0,0.0,0.0,75,0.00,,,0.00,WUHU216HW,2013-04-15 14:07:00,
2013-04-15 10:12:00,66.1,57.9,29.95,North,0,0.0,0.0,75,0.00,,,0.00,WUHU216HW,2013-04-15 14:12:00,
2013-04-15 10:17:00,66.2,58.1,29.95,North,0,0.0,0.0,75,0.00,,,0.00,WUHU216HW,2013-04-15 14:17:00,
2013-04-15 10:22:00,66.4,57.9,29.95,North,0,0.0,0.0,74,0.00,,,0.00,WUHU216HW,2013-04-15 14:22:00,
2013-04-15 10:28:00,66.6,58.1,29.96,North,0,0.0,0.0,74,0.00,,,0.00,WUHU216HW,2013-04-15 14:28:00,
2013-04-15 10:33:00,66.6,58.1,29.96,North,0,0.0,0.0,74,0.00,,,0.00,WUHU216HW,2013-04-15 14:33:00,
2013-04-15 10:38:00,66.6,58.1,29.96,North,0,0.0,0.0,74,0.00,,,0.00,WUHU216HW,2013-04-15 14:38:00,
2013-04-15 10:43:00,66.8,58.2,29.96,North,0,0.0,0.0,74,0.00,,,0.00,WUHU216HW,2013-04-15 14:43:00,
2013-04-15 10:48:00,66.6,57.7,29.96,North,0,0.0,0.0,73,0.00,,,0.00,WUHU216HW,2013-04-15 14:48:00,
2013-04-15 10:53:00,66.8,57.9,29.96,North,0,0.0,0.0,73,0.00,,,0.00,WUHU216HW,2013-04-15 14:53:00,
2013-04-15 10:58:00,66.8,58.2,29.96,North,0,0.0,0.0,74,0.00,,,0.00,WUHU216HW,2013-04-15 14:58:00,
2013-04-15 11:03:00,66.8,58.2,29.96,North,0,0.0,0.0,74,0.00,,,0.00,WUHU216HW,2013-04-15 15:03:00,
2013-04-15 11:08:00,66.8,58.2,29.97,North,0,0.0,0.0,74,0.00,,,0.00,WUHU216HW,2013-04-15 15:08:00,
2013-04-15 11:14:00,67.0,58.1,29.96,North,0,0.0,0.0,73,0.00,,,0.00,WUHU216HW,2013-04-15 15:14:00,
2013-04-15 11:19:00,67.1,58.2,29.97,North,0,0.0,0.0,73,0.00,,,0.00,WUHU216HW,2013-04-15 15:19:00,
2013-04-15 11:24:00,67.3,58.4,29.96,North,0,0.0,0.0,73,0.00,,,0.00,WUHU216HW,2013-04-15 15:24:00,
2013-04-15 11:29:00,67.3,58.4,29.97,North,0,0.0,0.0,73,0.00,,,0.00,WUHU216HW,2013-04-15 15:29:00,
2013-04-15 11:34:00,67.5,58.1,29.97,North,0,0.0,0.0,72,0.00,,,0.00,WUHU216HW,2013-04-15 15:34:00,
2013-04-15 11:39:00,67.5,58.1,29.97,North,0,0.0,0.0,72,0.00,,,0.00,WUHU216HW,2013-04-15 15:39:00,
2013-04-15 11:44:00,67.5,58.1,29.97,North,0,0.0,0.0,72,0.00,,,0.00,WUHU216HW,2013-04-15 15:44:00,
2013-04-15 11:49:00,67.7,58.3,29.97,North,0,0.0,0.0,72,0.00,,,0.00,WUHU216HW,2013-04-15 15:49:00,
2013-04-15 11:54:00,67.7,58.3,29.97,North,0,0.0,0.0,72,0.00,,,0.00,WUHU216HW,2013-04-15 15:54:00,
2013-04-15 12:00:00,67.9,58.5,29.97,North,0,0.0,0.0,72,0.00,,,0.00,WUHU216HW,2013-04-15 16:00:00,
2013-04-15 12:05:00,68.0,58.3,29.97,North,0,0.0,0.0,71,0.00,,,0.00,WUHU216HW,2013-04-15 16:05:00,
2013-04-15 12:10:00,68.0,58.3,29.97,North,0,0.0,0.0,71,0.00,,,0.00,WUHU216HW,2013-04-15 16:10:00,
2013-04-15 12:15:00,68.0,58.3,29.97,North,0,0.0,0.0,71,0.00,,,0.00,WUHU216HW,2013-04-15 16:15:00,
2013-04-15 12:20:00,68.0,58.7,29.97,North,0,0.0,0.0,72,0.00,,,0.00,WUHU216HW,2013-04-15 16:20:00,
2013-04-15 12:25:00,68.0,58.7,29.97,North,0,0.0,0.0,72,0.00,,,0.00,WUHU216HW,2013-04-15 16:25:00,
2013-04-15 12:30:00,68.0,59.1,29.97,North,0,0.0,0.0,73,0.00,,,0.00,WUHU216HW,2013-04-15 16:30:00,
2013-04-15 12:35:00,67.9,59.0,29.98,North,0,0.0,0.0,73,0.00,,,0.00,WUHU216HW,2013-04-15 16:35:00,
2013-04-15 12:40:00,67.7,58.8,29.98,North,0,0.0,0.0,73,0.00,,,0.00,WUHU216HW,2013-04-15 16:40:00,
2013-04-15 12:46:00,67.7,59.1,29.98,North,0,0.0,0.0,74,0.00,,,0.00,WUHU216HW,2013-04-15 16:46:00,
2013-04-15 12:51:00,67.7,59.1,29.98,North,0,0.0,0.0,74,0.00,,,0.00,WUHU216HW,2013-04-15 16:51:00,
2013-04-15 12:56:00,67.7,59.1,29.98,North,0,0.0,0.0,74,0.00,,,0.00,WUHU216HW,2013-04-15 16:56:00,
2013-04-15 13:01:00,67.9,59.3,29.98,North,0,0.0,0.0,74,0.00,,,0.00,WUHU216HW,2013-04-15 17:01:00,
2013-04-15 13:06:00,68.0,59.5,29.98,North,0,0.0,0.0,74,0.00,,,0.00,WUHU216HW,2013-04-15 17:06:00,
2013-04-15 13:11:00,68.2,59.2,29.98,North,0,0.0,0.0,73,0.00,,,0.00,WUHU216HW,2013-04-15 17:11:00,
2013-04-15 13:16:00,68.4,59.4,29.99,North,0,0.0,0.0,73,0.00,,,0.00,WUHU216HW,2013-04-15 17:16:00,
2013-04-15 13:21:00,68.6,59.2,29.99,North,0,0.0,0.0,72,0.00,,,0.00,WUHU216HW,2013-04-15 17:21:00,
2013-04-15 13:25:00,68.8,59.4,29.99,North,0,0.0,0.0,72,0.00,,,0.00,WUHU216HW,2013-04-15 17:25:00,
2013-04-15 13:30:00,68.9,59.5,29.99,North,0,0.0,0.0,72,0.00,,,0.00,WUHU216HW,2013-04-15 17:30:00,
2013-04-15 13:35:00,69.1,59.3,29.99,North,0,0.0,0.0,71,0.00,,,0.00,WUHU216HW,2013-04-15 17:35:00,
2013-04-15 13:40:00,69.3,59.5,29.99,North,0,0.0,0.0,71,0.00,,,0.00,WUHU216HW,2013-04-15 17:40:00,
2013-04-15 13:45:00,69.5,59.2,29.99,North,0,0.0,0.0,70,0.00,,,0.00,WUHU216HW,2013-04-15 17:45:00,
2013-04-15 13:50:00,69.8,59.6,29.98,North,0,0.0,0.0,70,0.00,,,0.00,WUHU216HW,2013-04-15 17:50:00,
2013-04-15 13:55:00,70.2,59.9,29.98,North,0,0.0,0.0,70,0.00,,,0.00,WUHU216HW,2013-04-15 17:55:00,
2013-04-15 14:00:00,70.2,59.5,29.99,North,0,0.0,0.0,69,0.00,,,0.00,WUHU216HW,2013-04-15 18:00:00,
2013-04-15 14:05:00,70.4,59.7,29.99,North,0,0.0,0.0,69,0.00,,,0.00,WUHU216HW,2013-04-15 18:05:00,
2013-04-15 14:10:00,70.6,59.9,29.99,North,0,0.0,0.0,69,0.00,,,0.00,WUHU216HW,2013-04-15 18:10:00,
2013-04-15 14:15:00,70.7,59.7,29.99,North,0,0.0,0.0,68,0.00,,,0.00,WUHU216HW,2013-04-15 18:15:00,
2013-04-15 14:20:00,70.9,59.9,29.99,North,0,0.0,0.0,68,0.00,,,0.00,WUHU216HW,2013-04-15 18:20:00,
2013-04-15 14:26:00,70.9,59.9,29.99,North,0,0.0,0.0,68,0.00,,,0.00,WUHU216HW,2013-04-15 18:26:00,
2013-04-15 14:29:00,70.9,59.4,29.99,North,0,0.0,0.0,67,0.00,,,0.00,WUHU216HW,2013-04-15 18:29:00,
2013-04-15 14:34:00,70.9,59.4,29.99,North,0,0.0,0.0,67,0.00,,,0.00,WUHU216HW,2013-04-15 18:34:00,
2013-04-15 14:40:00,70.9,59.4,29.99,North,0,0.0,0.0,67,0.00,,,0.00,WUHU216HW,2013-04-15 18:40:00,
2013-04-15 14:45:00,70.9,59.4,29.99,North,0,0.0,0.0,67,0.00,,,0.00,WUHU216HW,2013-04-15 18:45:00,
2013-04-15 14:50:00,71.1,59.6,29.99,North,0,0.0,0.0,67,0.00,,,0.00,WUHU216HW,2013-04-15 18:50:00,
2013-04-15 14:55:00,71.3,59.8,29.99,North,0,0.0,0.0,67,0.00,,,0.00,WUHU216HW,2013-04-15 18:55:00,
2013-04-15 15:00:00,71.6,59.7,29.99,North,0,0.0,0.0,66,0.00,,,0.00,WUHU216HW,2013-04-15 19:00:00,
2013-04-15 15:05:00,71.6,60.1,29.99,North,0,0.0,0.0,67,0.00,,,0.00,WUHU216HW,2013-04-15 19:05:00,
2013-04-15 15:10:00,71.8,60.3,29.99,North,0,0.0,0.0,67,0.00,,,0.00,WUHU216HW,2013-04-15 19:10:00,
2013-04-15 15:15:00,72.0,60.0,29.99,North,0,0.0,0.0,66,0.00,,,0.00,WUHU216HW,2013-04-15 19:15:00,
2013-04-15 15:20:00,72.2,60.2,29.99,North,0,0.0,0.0,66,0.00,,,0.00,WUHU216HW,2013-04-15 19:20:00,
2013-04-15 15:25:00,72.4,60.3,29.99,North,0,0.0,0.0,66,0.00,,,0.00,WUHU216HW,2013-04-15 19:25:00,
2013-04-15 15:31:00,72.4,60.3,29.98,North,0,0.0,0.0,66,0.00,,,0.00,WUHU216HW,2013-04-15 19:31:00,
2013-04-15 15:36:00,72.5,60.0,29.98,North,0,0.0,0.0,65,0.00,,,0.00,WUHU216HW,2013-04-15 19:36:00,
2013-04-15 15:42:00,72.9,60.8,29.98,North,0,0.0,0.0,66,0.00,,,0.00,WUHU216HW,2013-04-15 19:42:00,
2013-04-15 15:47:00,73.1,60.6,29.98,North,0,0.0,0.0,65,0.00,,,0.00,WUHU216HW,2013-04-15 19:47:00,
2013-04-15 15:53:00,73.1,60.6,29.98,North,0,0.0,0.0,65,0.00,,,0.00,WUHU216HW,2013-04-15 19:53:00,
2013-04-15 15:57:00,73.3,60.8,29.98,North,0,0.0,0.0,65,0.00,,,0.00,WUHU216HW,2013-04-15 19:57:00,
2013-04-15 15:58:00,73.3,60.8,29.98,North,0,0.0,0.0,65,0.00,,,0.00,WUHU216HW,2013-04-15 19:58:00,
2013-04-15 16:01:00,73.4,60.9,29.98,North,0,0.0,0.0,65,0.00,,,0.00,WUHU216HW,2013-04-15 20:01:00,
2013-04-15 16:02:00,73.4,60.9,29.98,North,0,0.0,0.0,65,0.00,,,0.00,WUHU216HW,2013-04-15 20:02:00,
2013-04-15 16:03:00,73.4,60.9,29.98,North,0,0.0,0.0,65,0.00,,,0.00,WUHU216HW,2013-04-15 20:03:00,
2013-04-15 16:06:00,73.4,60.5,29.98,North,0,0.0,0.0,64,0.00,,,0.00,WUHU216HW,2013-04-15 20:06:00,
2013-04-15 16:11:00,73.6,60.7,29.98,North,0,0.0,0.0,64,0.00,,,0.00,WUHU216HW,2013-04-15 20:11:00,
2013-04-15 16:16:00,73.6,60.7,29.98,North,0,0.0,0.0,64,0.00,,,0.00,WUHU216HW,2013-04-15 20:16:00,
2013-04-15 16:21:00,73.4,60.5,29.98,North,0,0.0,0.0,64,0.00,,,0.00,WUHU216HW,2013-04-15 20:21:00,
2013-04-15 16:27:00,73.4,60.5,29.97,North,0,0.0,0.0,64,0.00,,,0.00,WUHU216HW,2013-04-15 20:27:00,
2013-04-15 16:32:00,73.3,60.3,29.98,North,0,0.0,0.0,64,0.00,,,0.00,WUHU216HW,2013-04-15 20:32:00,
2013-04-15 16:37:00,73.4,60.0,29.98,North,0,0.0,0.0,63,0.00,,,0.00,WUHU216HW,2013-04-15 20:37:00,
2013-04-15 16:42:00,73.3,60.3,29.98,North,0,0.0,0.0,64,0.00,,,0.00,WUHU216HW,2013-04-15 20:42:00,
2013-04-15 16:47:00,73.3,59.9,29.98,North,0,0.0,0.0,63,0.00,,,0.00,WUHU216HW,2013-04-15 20:47:00,
2013-04-15 16:52:00,73.1,60.1,29.98,North,0,0.0,0.0,64,0.00,,,0.00,WUHU216HW,2013-04-15 20:52:00,
2013-04-15 16:57:00,73.1,59.7,29.98,North,0,0.0,0.0,63,0.00,,,0.00,WUHU216HW,2013-04-15 20:57:00,
2013-04-15 17:02:00,73.1,59.7,29.98,North,0,0.0,0.0,63,0.00,,,0.00,WUHU216HW,2013-04-15 21:02:00,
2013-04-15 17:07:00,73.1,59.7,29.98,North,0,0.0,0.0,63,0.00,,,0.00,WUHU216HW,2013-04-15 21:07:00,
2013-04-15 17:12:00,73.1,59.7,29.99,North,0,0.0,0.0,63,0.00,,,0.00,WUHU216HW,2013-04-15 21:12:00,
2013-04-15 17:17:00,73.1,59.7,29.99,North,0,0.0,0.0,63,0.00,,,0.00,WUHU216HW,2013-04-15 21:17:00,
2013-04-15 17:22:00,73.1,60.1,29.99,North,0,0.0,0.0,64,0.00,,,0.00,WUHU216HW,2013-04-15 21:22:00,
2013-04-15 17:27:00,72.9,60.4,29.99,North,0,0.0,0.0,65,0.00,,,0.00,WUHU216HW,2013-04-15 21:27:00,
2013-04-15 17:32:00,72.9,60.4,29.99,North,0,0.0,0.0,65,0.00,,,0.00,WUHU216HW,2013-04-15 21:32:00,
2013-04-15 17:37:00,72.7,60.2,29.98,North,0,0.0,0.0,65,0.00,,,0.00,WUHU216HW,2013-04-15 21:37:00,
2013-04-15 17:43:00,72.7,60.2,29.99,North,0,0.0,0.0,65,0.00,,,0.00,WUHU216HW,2013-04-15 21:43:00,
2013-04-15 17:48:00,72.7,60.7,29.99,North,0,0.0,0.0,66,0.00,,,0.00,WUHU216HW,2013-04-15 21:48:00,
2013-04-15 17:53:00,72.7,60.7,29.99,North,0,0.0,0.0,66,0.00,,,0.00,WUHU216HW,2013-04-15 21:53:00,
2013-04-15 17:58:00,72.5,60.0,29.99,North,0,0.0,0.0,65,0.00,,,0.00,WUHU216HW,2013-04-15 21:58:00,
2013-04-15 18:03:00,72.4,60.0,29.99,North,0,0.0,0.0,65,0.00,,,0.00,WUHU216HW,2013-04-15 22:03:00,
2013-04-15 18:08:00,72.2,60.2,29.99,North,0,0.0,0.0,66,0.00,,,0.00,WUHU216HW,2013-04-15 22:08:00,
2013-04-15 18:13:00,72.0,60.0,29.99,North,0,0.0,0.0,66,0.00,,,0.00,WUHU216HW,2013-04-15 22:13:00,
2013-04-15 18:18:00,72.0,60.0,30.00,North,0,0.0,0.0,66,0.00,,,0.00,WUHU216HW,2013-04-15 22:18:00,
2013-04-15 18:23:00,72.0,60.0,30.00,North,0,0.0,0.0,66,0.00,,,0.00,WUHU216HW,2013-04-15 22:23:00,
2013-04-15 18:28:00,71.8,59.9,30.00,North,0,0.0,0.0,66,0.00,,,0.00,WUHU216HW,2013-04-15 22:28:00,
2013-04-15 18:33:00,71.8,59.9,30.00,North,0,0.0,0.0,66,0.00,,,0.00,WUHU216HW,2013-04-15 22:33:00,
2013-04-15 18:38:00,71.6,60.1,30.00,North,0,0.0,0.0,67,0.00,,,0.00,WUHU216HW,2013-04-15 22:38:00,
2013-04-15 18:43:00,71.6,59.7,30.00,North,0,0.0,0.0,66,0.00,,,0.00,WUHU216HW,2013-04-15 22:43:00,
2013-04-15 18:48:00,71.6,59.7,30.00,North,0,0.0,0.0,66,0.00,,,0.00,WUHU216HW,2013-04-15 22:48:00,
2013-04-15 18:53:00,71.6,60.1,30.01,North,0,0.0,0.0,67,0.00,,,0.00,WUHU216HW,2013-04-15 22:53:00,
2013-04-15 18:58:00,71.6,59.7,30.01,North,0,0.0,0.0,66,0.00,,,0.00,WUHU216HW,2013-04-15 22:58:00,
2013-04-15 19:03:00,71.5,59.5,30.01,North,0,0.0,0.0,66,0.00,,,0.00,WUHU216HW,2013-04-15 23:03:00,
2013-04-15 19:09:00,71.3,59.3,30.01,North,0,0.0,0.0,66,0.00,,,0.00,WUHU216HW,2013-04-15 23:09:00,
2013-04-15 19:14:00,71.1,59.1,30.01,North,0,0.0,0.0,66,0.00,,,0.00,WUHU216HW,2013-04-15 23:14:00,
2013-04-15 19:19:00,70.9,59.0,30.01,North,0,0.0,0.0,66,0.00,,,0.00,WUHU216HW,2013-04-15 23:19:00,
2013-04-15 19:24:00,70.9,59.4,30.01,North,0,0.0,0.0,67,0.00,,,0.00,WUHU216HW,2013-04-15 23:24:00,
2013-04-15 19:29:00,70.7,59.2,30.02,North,0,0.0,0.0,67,0.00,,,0.00,WUHU216HW,2013-04-15 23:29:00,
2013-04-15 19:34:00,70.7,59.2,30.02,North,0,0.0,0.0,67,0.00,,,0.00,WUHU216HW,2013-04-15 23:34:00,
2013-04-15 19:39:00,70.7,59.2,30.02,North,0,0.0,0.0,67,0.00,,,0.00,WUHU216HW,2013-04-15 23:39:00,
2013-04-15 19:44:00,70.6,59.1,30.02,North,0,0.0,0.0,67,0.00,,,0.00,WUHU216HW,2013-04-15 23:44:00,
2013-04-15 19:49:00,70.6,59.1,30.02,North,0,0.0,0.0,67,0.00,,,0.00,WUHU216HW,2013-04-15 23:49:00,
2013-04-15 19:54:00,70.6,59.5,30.03,North,0,0.0,0.0,68,0.00,,,0.00,WUHU216HW,2013-04-15 23:54:00,
2013-04-15 19:59:00,70.4,58.9,30.03,North,0,0.0,0.0,67,0.00,,,0.00,WUHU216HW,2013-04-15 23:59:00,
2013-04-15 20:04:00,70.2,58.7,30.03,North,0,0.0,0.0,67,0.00,,,0.00,WUHU216HW,2013-04-16 00:04:00,
2013-04-15 20:10:00,70.2,58.7,30.03,North,0,0.0,0.0,67,0.00,,,0.00,WUHU216HW,2013-04-16 00:10:00,
2013-04-15 20:15:00,70.0,59.0,30.03,North,0,0.0,0.0,68,0.00,,,0.00,WUHU216HW,2013-04-16 00:15:00,
2013-04-15 20:20:00,70.0,59.0,30.03,North,0,0.0,0.0,68,0.00,,,0.00,WUHU216HW,2013-04-16 00:20:00,
2013-04-15 20:25:00,70.0,59.0,30.04,North,0,0.0,0.0,68,0.00,,,0.00,WUHU216HW,2013-04-16 00:25:00,
2013-04-15 20:30:00,69.8,58.8,30.04,North,0,0.0,0.0,68,0.00,,,0.00,WUHU216HW,2013-04-16 00:30:00,
2013-04-15 20:35:00,69.7,58.6,30.04,North,0,0.0,0.0,68,0.00,,,0.00,WUHU216HW,2013-04-16 00:35:00,
2013-04-15 20:40:00,69.5,58.4,30.04,North,0,0.0,0.0,68,0.00,,,0.00,WUHU216HW,2013-04-16 00:40:00,
2013-04-15 20:45:00,69.5,58.9,30.04,North,0,0.0,0.0,69,0.00,,,0.00,WUHU216HW,2013-04-16 00:45:00,
2013-04-15 20:50:00,69.5,58.9,30.04,North,0,0.0,0.0,69,0.00,,,0.00,WUHU216HW,2013-04-16 00:50:00,
2013-04-15 20:55:00,69.5,58.9,30.05,North,0,0.0,0.0,69,0.00,,,0.00,WUHU216HW,2013-04-16 00:55:00,
2013-04-15 21:00:00,69.5,58.9,30.05,North,0,0.0,0.0,69,0.00,,,0.00,WUHU216HW,2013-04-16 01:00:00,
2013-04-15 21:05:00,69.5,58.9,30.05,North,0,0.0,0.0,69,0.00,,,0.00,WUHU216HW,2013-04-16 01:05:00,
2013-04-15 21:10:00,69.3,58.7,30.06,North,0,0.0,0.0,69,0.00,,,0.00,WUHU216HW,2013-04-16 01:10:00,
2013-04-15 21:15:00,69.3,58.7,30.06,North,0,0.0,0.0,69,0.00,,,0.00,WUHU216HW,2013-04-16 01:15:00,
2013-04-15 21:20:00,69.3,58.7,30.07,North,0,0.0,0.0,69,0.00,,,0.00,WUHU216HW,2013-04-16 01:20:00,
2013-04-15 21:25:00,69.1,58.5,30.07,North,0,0.0,0.0,69,0.00,,,0.00,WUHU216HW,2013-04-16 01:25:00,
2013-04-15 21:30:00,69.1,59.0,30.07,North,0,0.0,0.0,70,0.00,,,0.00,WUHU216HW,2013-04-16 01:30:00,
2013-04-15 21:35:00,68.8,58.6,30.07,North,0,0.0,0.0,70,0.00,,,0.00,WUHU216HW,2013-04-16 01:35:00,
2013-04-15 21:41:00,68.8,58.6,30.07,North,0,0.0,0.0,70,0.00,,,0.00,WUHU216HW,2013-04-16 01:41:00,
2013-04-15 21:46:00,68.8,58.6,30.07,North,0,0.0,0.0,70,0.00,,,0.00,WUHU216HW,2013-04-16 01:46:00,
2013-04-15 21:51:00,68.8,58.6,30.07,North,0,0.0,0.0,70,0.00,,,0.00,WUHU216HW,2013-04-16 01:51:00,
2013-04-15 21:56:00,68.6,58.4,30.08,North,0,0.0,0.0,70,0.00,,,0.00,WUHU216HW,2013-04-16 01:56:00,
2013-04-15 22:01:00,68.4,58.3,30.08,North,0,0.0,0.0,70,0.00,,,0.00,WUHU216HW,2013-04-16 02:01:00,
2013-04-15 22:06:00,68.4,58.3,30.08,North,0,0.0,0.0,70,0.00,,,0.00,WUHU216HW,2013-04-16 02:06:00,
2013-04-15 22:11:00,68.6,58.4,30.08,North,0,0.0,0.0,70,0.00,,,0.00,WUHU216HW,2013-04-16 02:11:00,
2013-04-15 22:17:00,68.0,58.0,30.08,North,0,0.0,0.0,70,0.00,,,0.00,WUHU216HW,2013-04-16 02:17:00,
2013-04-15 22:22:00,67.7,57.6,30.08,North,0,0.0,0.0,70,0.00,,,0.00,WUHU216HW,2013-04-16 02:22:00,
2013-04-15 22:27:00,67.3,57.6,30.08,North,0,0.0,0.0,71,0.00,,,0.00,WUHU216HW,2013-04-16 02:27:00,
2013-04-15 22:32:00,67.1,57.4,30.08,North,0,0.0,0.0,71,0.00,,,0.00,WUHU216HW,2013-04-16 02:32:00,
2013-04-15 22:37:00,67.0,57.6,30.08,North,0,0.0,0.0,72,0.00,,,0.00,WUHU216HW,2013-04-16 02:37:00,
2013-04-15 22:42:00,66.8,57.4,30.08,North,0,0.0,0.0,72,0.00,,,0.00,WUHU216HW,2013-04-16 02:42:00,
2013-04-15 22:47:00,66.6,57.2,30.09,North,0,0.0,0.0,72,0.00,,,0.00,WUHU216HW,2013-04-16 02:47:00,
2013-04-15 22:52:00,66.4,57.5,30.09,North,0,0.0,0.0,73,0.00,,,0.00,WUHU216HW,2013-04-16 02:52:00,
2013-04-15 22:57:00,66.2,57.3,30.09,North,0,0.0,0.0,73,0.00,,,0.00,WUHU216HW,2013-04-16 02:57:00,
2013-04-15 23:02:00,66.1,57.2,30.09,North,0,0.0,0.0,73,0.00,,,0.00,WUHU216HW,2013-04-16 03:02:00,
2013-04-15 23:07:00,65.9,57.3,30.09,North,0,0.0,0.0,74,0.00,,,0.00,WUHU216HW,2013-04-16 03:07:00,
2013-04-15 23:12:00,65.7,57.2,30.09,North,0,0.0,0.0,74,0.00,,,0.00,WUHU216HW,2013-04-16 03:12:00,
2013-04-15 23:17:00,65.5,57.0,30.09,North,0,0.0,0.0,74,0.00,,,0.00,WUHU216HW,2013-04-16 03:17:00,
2013-04-15 23:22:00,65.5,57.0,30.09,North,0,0.0,0.0,74,0.00,,,0.00,WUHU216HW,2013-04-16 03:22:00,
2013-04-15 23:27:00,65.3,56.8,30.09,North,0,0.0,0.0,74,0.00,,,0.00,WUHU216HW,2013-04-16 03:27:00,
2013-04-15 23:32:00,65.3,57.2,30.09,North,0,0.0,0.0,75,0.00,,,0.00,WUHU216HW,2013-04-16 03:32:00,
2013-04-15 23:38:00,65.3,57.2,30.09,North,0,0.0,0.0,75,0.00,,,0.00,WUHU216HW,2013-04-16 03:38:00,
2013-04-15 23:43:00,65.2,57.1,30.09,North,0,0.0,0.0,75,0.00,,,0.00,WUHU216HW,2013-04-16 03:43:00,
2013-04-15 23:48:00,65.2,57.1,30.09,North,0,0.0,0.0,75,0.00,,,0.00,WUHU216HW,2013-04-16 03:48:00,
2013-04-15 23:53:00,65.2,57.1,30.09,North,0,0.0,0.0,75,0.00,,,0.00,WUHU216HW,2013-04-16 03:53:00,
2013-04-15 23:58:00,65.2,57.1,30.09,North,0,0.0,0.0,75,0.00,,,0.00,WUHU216HW,2013-04-16 03:58:00,